This is the latest recevied weather packets stored in our database for station/object IU7URP-13. If no packets are shown the sender has not sent any weather packets the latest 10 day(s).
| Time | Temp. | Humidity | Pressure | Rain* | Wind** | Luminosity | Snow |
|---|---|---|---|---|---|---|---|
| 1777894110 | 23.89° C | 58% | 1020.4 hPa | - | - | - | - |
| 1777892908 | 24.44° C | 58% | 1020.6 hPa | - | - | - | - |
| 1777892861 | 23.33° C | 62% | 1020.6 hPa | - | - | - | - |
| 1777891658 | 22.78° C | 65% | 1020.7 hPa | - | - | - | - |
| 1777890456 | 23.33° C | 61% | 1020.9 hPa | - | - | - | - |
| 1777889254 | 22.78° C | 69% | 1021 hPa | - | - | - | - |
| 1777888848 | 23.89° C | 42% | 1021 hPa | - | - | - | - |
| 1777887646 | 23.33° C | 50% | 1021.3 hPa | - | - | - | - |
| 1777886445 | 24.44° C | 46% | 1021.4 hPa | - | - | - | - |
| 1777885244 | 24.44° C | 45% | 1021.6 hPa | - | - | - | - |
| 1777882815 | 22.78° C | 58% | 1021.7 hPa | - | - | - | - |
| 1777881607 | 24.44° C | 54% | 1021.7 hPa | - | - | - | - |
| 1777880790 | 24.44° C | 65% | 1021.8 hPa | - | - | - | - |
| 1777880406 | 25.56° C | 52% | 1021.8 hPa | - | - | - | - |
| 1777879205 | 26.11° C | 53% | 1021.6 hPa | - | - | - | - |
| 1777879154 | 25.56° C | 54% | 1021.7 hPa | - | - | - | - |
| 1777877987 | 24.44° C | 59% | 1021.7 hPa | - | - | - | - |
| 1777876786 | 24.44° C | 68% | 1021.7 hPa | - | - | - | - |
| 1777876356 | 23.33° C | 78% | 1021.6 hPa | - | - | - | - |
| 1777875798 | 23.33° C | 79% | 1021.5 hPa | - | - | - | - |
| 1777874596 | 22.78° C | 99% | 1021.7 hPa | - | - | - | - |
| 1777873395 | 20.56° C | 99% | 1021.7 hPa | - | - | - | - |
| 1777872194 | 17.78° C | 99% | 1021.8 hPa | - | - | - | - |
| 1777870992 | 16.11° C | 99% | 1021.7 hPa | - | - | - | - |
| 1777869791 | 18.89° C | 99% | 1021.3 hPa | - | - | - | - |
* Rain since midnight (hover to see other rain measurements)
** Current wind speed in m/s (hover to see current wind gust speed)